Preview of NWS' New Version of Forecast
This preview is not operational and should not be used for support decisions.

Regional Weather Roundup (RWR)

Issued by National Weather Service (NWS)

                            
000
ASUS44 KMEG 211600
RWRTN 
TENNESSEE HOURLY STATE WEATHER ROUNDUP
NATIONAL WEATHER SERVICE MEMPHIS TN
1100 AM CDT SAT SEP 21 2019

TNZ002-004-019-021-049-052-054-088>092-211700-
WEST TENNESSEE
  
CITY           SKY/WX    TMP DP  RH WIND       PRES   REMARKS
MEMPHIS INTL   FAIR      86  58  38 S13       30.23F                  
NWS MEMPHIS      N/A     85 N/A N/A MISG        N/A                   
JACKSON        FAIR      84  62  47 S9        30.26S                  
DYERSBURG      FAIR      84  59  42 S10       30.24F                  
$$

TNZ008-025-027-028-033-062-065-066-211700-
NORTH MIDDLE TENNESSEE
  
CITY           SKY/WX    TMP DP  RH WIND       PRES   REMARKS
NASHVILLE      PTSUNNY   84  53  34 S10       30.29F                  
CLARKSVILLE    FAIR      85  55  35 SW8       30.26F                  
SMYRNA         FAIR      85  57  38 S8        30.30F                  
CROSSVILLE     FAIR      76  52  43 VRB7      30.37F                  
$$

TNZ061-075-076-078-094-096-097-211700-
SOUTH MIDDLE TENNESSEE
  
CITY           SKY/WX    TMP DP  RH WIND       PRES   REMARKS
$$

TNZ017-018-042-046-047-211700-
NORTHEAST TENNESSEE
  
CITY           SKY/WX    TMP DP  RH WIND       PRES   REMARKS
TRI CITIES     FAIR      79  61  53 W6        30.35F                  
$$

TNZ012-013-036-069-073-074-211700-
CENTRAL EAST TENNESSEE
  
CITY           SKY/WX    TMP DP  RH WIND       PRES   REMARKS
KNOXVILLE      FAIR      78  56  46 S6        30.32F                  
OAK RIDGE      FAIR      80  56  43 VRB5      30.34F                  
$$

TNZ083-085-099-211700-
SOUTHEAST TENNESSEE
  
CITY           SKY/WX    TMP DP  RH WIND       PRES   REMARKS
CHATTANOOGA    FAIR      80  61  52 E5        30.32F                  
$$

SKY/WX REPORTED AS FAIR MEANS FEW OR NO CLOUDS BELOW
12 THOUSAND FEET.